This demonstration page uses our WeatherBlox Daily Observations layout. Learn more.

38.88101, -77.10428

Hourly Observations for March 5, 2020

Temp ( °F °C ) Dew Point ( °F °C ) Humidity (%) Winds ( mph kmh ) Pressure ( in mb ) Visibility ( mi km ) Precip ( " mm )
12:52 am 00:52 Cloudy 54 12.2 29 -1.7 38 38 NNW 13 20 29.99 1016 10 16.0934 0 0
1:52 am 01:52 Mostly Cloudy 52 11.1 34 1.1 50 50 NNW 17 28 30.04 1017 10 16.0934 0 0
2:52 am 02:52 Mostly Cloudy 49 9.4 33 0.6 55 55 NNW 25 41 30.06 1018 10 16.0934 0 0
3:52 am 03:52 Mostly Cloudy 46 7.8 28 -2.2 50 50 N 17 28 30.08 1019 10 16.0934 0 0
4:52 am 04:52 Partly Cloudy 44 6.7 25 -3.9 47 47 NNW 15 24 30.13 1020 10 16.0934 0 0
5:52 am 05:52 Mostly Cloudy 42 5.6 25 -3.9 51 51 NNW 7 11 30.17 1022 10 16.0934 0 0
6:52 am 06:52 Mostly Cloudy 42 5.6 25 -3.9 51 51 NNW 6 9 30.17 1022 10 16.0934 0 0
7:52 am 07:52 Mostly Cloudy 45 7.2 26 -3.3 48 48 N 5 7 30.19 1022 10 16.0934 0 0
8:52 am 08:52 Mostly Cloudy 47 8.3 27 -2.8 46 46 N 10 17 30.2 1023 10 16.0934 0 0
9:52 am 09:52 Cloudy 49 9.4 26 -3.3 41 41 VRB 3 6 30.2 1023 10 16.0934 0 0
10:52 am 10:52 Mostly Cloudy 49 9.4 28 -2.2 44 44 SSE 5 7 30.19 1023 10 16.0934 0 0
11:52 am 11:52 Mostly Cloudy 50 10 26 -3.3 39 39 ESE 5 7 30.19 1022 10 16.0934 0 0
12:52 pm 12:52 Cloudy 52 11.1 27 -2.8 38 38 ESE 3 6 30.16 1022 10 16.0934 0 0
1:52 pm 13:52 Cloudy 53 11.7 25 -3.9 34 34 S 8 13 30.14 1021 10 16.0934 0 0
2:52 pm 14:52 Cloudy 53 11.7 24 -4.4 32 32 SE 3 6 30.12 1020 10 16.0934 0 0
3:52 pm 15:52 Cloudy 53 11.7 25 -3.9 34 34 S 5 7 30.11 1020 10 16.0934 0 0
4:52 pm 16:52 Cloudy 52 11.1 27 -2.8 38 38 S 5 7 30.09 1019 10 16.0934 0 0
5:52 pm 17:52 Cloudy 51 10.6 30 -1.1 44 44 ESE 9 15 30.08 1019 10 16.0934 0 0
6:52 pm 18:52 Cloudy 49 9.4 29 -1.7 46 46 SSE 10 17 30.08 1019 10 16.0934 0 0
7:52 pm 19:52 Mostly Cloudy 47 8.3 30 -1.1 52 52 S 8 13 30.08 1019 10 16.0934 0 0
8:52 pm 20:52 Cloudy 45 7.2 32 0 61 61 S 7 11 30.07 1018 10 16.0934 0 0
9:52 pm 21:52 Mostly Cloudy 45 7.2 29 -1.7 54 54 SE 3 6 30.06 1018 10 16.0934 0 0
10:52 pm 22:52 Mostly Cloudy 43 6.1 30 -1.1 60 60 S 6 9 30.05 1018 10 16.0934 0 0
11:52 pm 23:52 Mostly Clear 43 6.1 30 -1.1 60 60 SE 3 6 30.04 1017 10 16.0934 0 0

Powered by AerisWeather